Location: Kaarina
(60.4167°N, 22.4167°E)
Time: 21:25:44
(UTC+03:00)

Terra - Pass Details

Date: 24 August 2019
Orbit: 702 x 703 km, 98.2° (Epoch: 15 September)

Event Time Altitude Azimuth Distance (km) Brightness Sun altitude
Exits shadow 23:10:38 17° 169° (S) 1,754 3.3 -13.2°
Maximum altitude 23:14:21 76° 254° (WSW) 733 1.9 -13.5°
Drops below altitude 10° 23:19:09 10° 341° (NNW) 2,185 5.7 -13.8°
Sets 23:21:25 0° 343° (NNW) 3,108 6.7 -14.0°
